10-min_data_Skallen_2015.csv,,,,,,,,
TIMESTAMP,Wind_Speed,Wind_direction,Air_Temperature,Humidity,Solar radiation,PAR,UV,Air Pressure
(yyyy/mm/dd hh:mm),(m/s),(degree),(���j,(%),(W/m^2),(micro-mol/m^2/s),(W/m^2),(hPa)
,Avg,Avg,Smp,Smp,Avg,Avg,Avg,Smp
2015/1/1 0:00,5.166,106.8,0.135,51.09,29.54461,50.78091,1.628674,985.8557
2015/1/1 0:10,5.318,106.9,-0.104,50.03,23.16887,43.05586,1.582263,985.8557
2015/1/1 0:20,5.395,109.8,-0.205,51.19,17.65095,37.62078,1.582406,985.9973
2015/1/1 0:30,5.389,111.4,-0.02,50.41,17.78364,37.25506,1.582545,986.068
2015/1/1 0:40,5.952,106.7,-0.043,49.9,19.99712,38.36735,1.582661,986.1387
2015/1/1 0:50,5.847,101.1,-0.366,49.73,21.61968,40.86492,1.582721,986.2095
2015/1/1 1:00,5.829,100,-0.324,50.27,24.3933,43.41672,1.582732,986.2095
2015/1/1 1:10,5.499,105.8,-0.491,50.31,22.31625,41.85938,1.612739,986.2963
2015/1/1 1:20,4.95,102.1,-0.492,51.71,18.20673,39.33014,1.736885,986.3094
2015/1/1 1:30,5.646,99.2,-0.159,49.16,18.93161,40.35728,1.797556,986.3117
2015/1/1 1:40,6.18,97.6,-0.285,49.23,18.45369,43.85493,1.955005,986.312
2015/1/1 1:50,6.11,101.4,-0.573,49.77,18.40174,46.90279,2.070248,986.3151
2015/1/1 2:00,6.154,101.2,-0.657,49.02,23.82356,53.34256,2.198021,986.3871
2015/1/1 2:10,5.15,103.7,-0.243,49.5,34.5729,65.31246,2.391576,986.4548
2015/1/1 2:20,5.001,106.6,-0.449,50.25,41.43968,73.72932,2.570788,986.4667
2015/1/1 2:30,4.769,110.2,-0.698,51.07,36.10417,68.2999,2.722631,986.554
2015/1/1 2:40,4.639,106.7,-0.615,51.79,48.22335,82.30058,2.929376,986.5558
2015/1/1 2:50,4.89,109,-0.356,53.52,61.33244,97.4014,3.179383,986.556
2015/1/1 3:00,4.721,114.2,-0.554,55.39,59.36185,102.7532,3.457702,986.556
2015/1/1 3:10,4.799,115.5,-0.621,55.73,83.22591,136.6515,3.822356,986.556
2015/1/1 3:20,4.16,115.6,-0.615,58.56,99.5699,162.217,4.195113,986.556
2015/1/1 3:30,4.463,115.3,-0.239,54.41,78.66566,137.3615,4.359195,986.4852
2015/1/1 3:40,4.903,108.4,-0.239,58.73,74.28299,135.2769,4.63853,986.556
2015/1/1 3:50,4.27,112.8,-0.113,57.09,97.27132,177.0645,5.142288,986.556
2015/1/1 4:00,5.044,108.7,0.597,52.77,134.699,230.3894,5.774665,986.556
2015/1/1 4:10,4.764,113.5,0.19,55.33,125.8571,218.8199,6.224942,986.5039
2015/1/1 4:20,4.885,108.1,0.406,51.73,108.6548,197.4115,6.614537,986.4476
2015/1/1 4:30,5.4,101.6,0.501,50.81,67.04595,132.9398,6.356102,986.6066
2015/1/1 4:40,4.855,106.3,-0.076,54.25,66.48015,131.8051,6.563493,986.6691
2015/1/1 4:50,4.073,107.5,0.013,53.4,89.49316,164.8058,7.22808,986.6805
2015/1/1 5:00,3.628,110.2,0.013,53.3,113.9479,206.114,8.093986,986.6879
2015/1/1 5:10,4,114.7,-0.276,55.34,134.223,249.1467,8.761111,986.6176
2015/1/1 5:20,3.329,120.6,-0.234,55,149.3996,281.4776,9.321524,986.5426
2015/1/1 5:30,4.337,114.4,0.308,48.53,159.1884,302.1685,9.8191,986.4722
2015/1/1 5:40,5.218,103.4,0.35,47.89,168.1114,324.7196,10.34801,986.4713
2015/1/1 5:50,5.371,103.1,0.389,49.45,174.2882,342.3263,10.89919,986.4738
2015/1/1 6:00,4.742,101.9,0.515,49.04,187.2398,366.2172,11.60935,986.3265
2015/1/1 6:10,4.796,107.1,0.474,49.86,214.5164,410.1962,12.70874,986.2581
2015/1/1 6:20,4.464,111.9,0.764,49.01,233.4617,435.7509,13.58663,986.1127
2015/1/1 6:30,3.852,124.4,0.182,58.78,212.0509,413.6682,13.56569,986.1216
2015/1/1 6:40,3.488,118.4,0.597,54.59,202.6801,412.2982,13.69103,986.0529
2015/1/1 6:50,3.07,113.2,0.933,50.07,209.7532,436.1388,14.22786,986.0514
2015/1/1 7:00,2.943,116.3,0.6,53.3,228.5873,473.1117,15.21658,986.0497
2015/1/1 7:10,3.052,127.9,0.725,54.8,260.5081,519.5385,16.5556,986.0527
2015/1/1 7:20,2.782,136.6,0.764,55.11,273.0871,543.5839,17.36175,986.053
2015/1/1 7:30,3.013,132.3,1.1,52.38,283.4764,570.0922,18.11249,985.9822
2015/1/1 7:40,3.4,119.1,1.475,49.01,302.5224,603.803,19.10533,985.9115
2015/1/1 7:50,3.184,124.1,1.226,51.29,329.2914,651.7762,20.35546,985.9822
2015/1/1 8:00,3.132,120.5,1.685,52.11,378.5713,727.5034,22.16402,985.9115
2015/1/1 8:10,2.701,134.7,1.524,51.02,457.4659,843.9678,24.75835,985.9115
2015/1/1 8:20,3.668,99.9,2.401,40.47,460.6737,821.4781,25.2273,985.9822
2015/1/1 8:30,3.224,77.13,2.607,42.58,499.9451,870.7219,26.67467,986.053
2015/1/1 8:40,2.065,87.5,2.23,51.77,504.6235,872.8755,27.22905,985.9822
2015/1/1 8:50,2.343,147,2.146,52.18,474.4558,831.8502,26.98097,985.9115
2015/1/1 9:00,2.176,139.3,2.564,47.31,571.3823,976.1337,29.91762,986.0499
2015/1/1 9:10,3.242,124.6,2.983,42.04,587.7125,992.7885,30.88474,986.0527
2015/1/1 9:20,2.899,86.7,3.775,37.51,611.9631,1003.591,31.44746,985.9115
2015/1/1 9:30,2.51,49.43,3.901,37.47,892.5879,1375.118,37.50002,985.7568
2015/1/1 9:40,2.01,47.7,3.861,37.03,837.6956,1302.353,37.08457,985.8303
2015/1/1 9:50,2.762,99.4,3.733,44.72,836.9145,1311.823,37.7291,985.7529
2015/1/1 10:00,3.863,137.6,3.401,45.57,816.2895,1283.744,37.66692,985.834
2015/1/1 10:10,3.962,131.5,3.398,46.97,822.0562,1285.164,38.19138,985.8323
2015/1/1 10:20,3.099,100.4,4.027,32.1,834.7711,1299.118,38.8552,985.8378
2015/1/1 10:30,3.324,57.6,4.108,35.16,839.7942,1314.354,39.47565,985.8395
2015/1/1 10:40,3.104,69.99,4.272,35.16,851.7002,1334.796,40.11628,985.8876
2015/1/1 10:50,2.888,70.72,4.295,33.38,860.8199,1352.233,40.66907,985.861
2015/1/1 11:00,2.892,64.94,3.953,33.65,868.6071,1367.921,41.21481,985.9225
2015/1/1 11:10,2.515,70.1,3.985,33.92,878.4063,1383.163,41.72208,985.8486
2015/1/1 11:20,2.842,76.64,3.734,36.17,884.68,1396.997,42.14521,985.8483
2015/1/1 11:30,3.003,72.4,4.233,38.48,891.8884,1408.388,42.51636,985.7775
2015/1/1 11:40,2.748,51.55,3.982,36.65,898.0894,1416.957,42.85044,985.7775
2015/1/1 11:50,2.47,36.57,4.232,35.56,901.8862,1424.507,43.14676,985.7067
2015/1/1 12:00,2.929,49.41,4.186,35.69,904.2904,1432.546,43.40307,985.7067
2015/1/1 12:10,2.729,54.96,4.212,34.54,907.9947,1438.251,43.57022,985.7067
2015/1/1 12:20,1.917,34.08,4.908,32.49,909.6451,1440.846,43.70678,985.7067
2015/1/1 12:30,2.459,237.3,2.015,67.47,903.4496,1447.755,43.81781,985.7067
2015/1/1 12:40,2.676,212.6,1.722,60.9,906.7147,1446.555,43.93061,985.6977
2015/1/1 12:50,2.249,192.5,1.389,66.21,909.5351,1442.929,43.82607,985.6922
2015/1/1 13:00,2.619,223.5,1.68,63.55,909.4464,1444.515,43.77661,985.6815
2015/1/1 13:10,3.422,250.8,2.351,52.6,904.2012,1441.407,43.54431,985.6799
2015/1/1 13:20,2.768,280.6,2.389,52.08,902.3638,1431.6,43.22711,985.8193
2015/1/1 13:30,2.557,287.5,2.766,56.81,897.7747,1423.482,42.80636,985.7462
2015/1/1 13:40,2.37,293.7,2.35,56.98,890.9447,1413.577,42.31192,985.6752
2015/1/1 13:50,2.361,263.9,1.763,64.23,883.0237,1405.853,41.84172,985.6719
2015/1/1 14:00,2.421,250,1.599,72.93,873.1607,1395.192,41.42213,985.5977
2015/1/1 14:10,2.713,256.3,1.598,67.96,861.7888,1381.581,41.00039,985.579
2015/1/1 14:20,2.378,264,1.973,69.56,855.5318,1365.024,40.36862,985.6456
2015/1/1 14:30,2.389,256.5,1.932,63.44,843.2424,1350.135,39.79059,985.7145
2015/1/1 14:40,2.057,262.8,2.265,59.32,832.2086,1329.814,38.97186,985.7852
2015/1/1 14:50,1.726,241.8,2.007,67.45,818.5272,1311.921,38.35713,985.6436
2015/1/1 15:00,1.611,214.3,1.586,68.71,802.1318,1291.515,37.59214,985.6436
2015/1/1 15:10,1.304,193.6,1.787,59.93,788.8496,1265.985,36.59316,985.6436
2015/1/1 15:20,1.233,212,1.988,60.51,772.725,1245.307,35.73417,985.6436
2015/1/1 15:30,1.171,220.1,1.849,59.73,756.7093,1221.539,34.93887,985.6436
2015/1/1 15:40,1.347,211.3,1.84,62.52,737.5095,1195.971,34.10824,985.5729
2015/1/1 15:50,1.386,222.5,1.83,57.89,723.3674,1169.348,33.28226,985.5021
2015/1/1 16:00,1.083,215.5,1.81,67.21,705.3307,1140.39,32.46782,985.4314
2015/1/1 16:10,1.535,98.1,2.512,55.65,685.1312,1109.283,31.61806,985.4314
2015/1/1 16:20,1.794,90.3,2.513,55.58,666.8524,1079.624,30.6809,985.4314
2015/1/1 16:30,2.519,149.8,2.511,57.14,650.3676,1049.474,29.80491,985.3607
2015/1/1 16:40,2.52,148.3,2.514,56.63,634.0667,1018.863,28.91526,985.2899
2015/1/1 16:50,2.324,142.2,2.719,52.52,614.6917,987.4923,28.02527,985.2191
2015/1/1 17:00,2.449,147.9,2.551,49.08,594.2861,955.9704,27.10018,985.2191
2015/1/1 17:10,2.349,148.5,2.26,52.82,574.7178,923.9704,26.18086,985.2151
2015/1/1 17:20,2.06,149.7,2.471,49.96,555.7615,891.3278,25.2182,985.1416
2015/1/1 17:30,2.159,149.6,2.428,48.74,534.9261,858.6819,24.25388,985.0769
2015/1/1 17:40,1.934,151.7,2.386,48.47,514.2456,825.791,23.27408,985.075
2015/1/1 17:50,1.905,153.6,2.429,48.26,468.0952,792.4001,22.28735,984.9979
2015/1/1 18:00,1.717,153.2,2.138,50.88,444.4099,759.2256,21.30457,984.9351
2015/1/1 18:10,1.233,115.8,2.887,46.09,452.313,725.6737,20.31554,984.933
2015/1/1 18:20,0.66,98.5,2.806,47.34,430.7266,692.0178,19.32403,984.8574
2015/1/1 18:30,1.139,192.1,1.634,55.44,406.6906,660.0228,18.33137,984.7917
2015/1/1 18:40,1.342,235.2,1.344,60.58,387.2326,628.3986,17.39919,984.7219
2015/1/1 18:50,1.729,240.7,0.716,72.72,367.9007,595.2526,16.51349,984.7197
2015/1/1 19:00,1.709,255.8,1.761,60.85,353.2483,562.5261,15.5795,984.6526
2015/1/1 19:10,1.159,176.4,0.256,77.89,330.9955,531.2626,14.64733,984.6517
2015/1/1 19:20,1.354,203.1,-0.035,79.39,232.5124,500.2777,13.73806,984.5114
2015/1/1 19:30,2.116,234.9,-0.078,79.35,43.14808,469.1283,12.86489,984.5025
2015/1/1 19:40,2.094,243.7,0.091,80.3,39.82371,439.8916,12.02484,984.5074
2015/1/1 19:50,1.466,215.8,-0.244,81,38.30973,411.7823,11.19369,984.5111
2015/1/1 20:00,1.512,234,-0.159,78.09,82.84476,382.7184,10.41446,984.5089
2015/1/1 20:10,1.532,236.3,-0.284,80.5,43.00827,354.9883,9.658966,984.5113
2015/1/1 20:20,0.955,218.2,-0.035,80.1,33.0831,328.2346,8.937254,984.5823
2015/1/1 20:30,1.001,210.3,-0.078,81.2,31.96698,302.7594,8.258229,984.5084
2015/1/1 20:40,0.938,206.2,0.046,80.5,31.39335,278.3564,7.615298,984.4952
2015/1/1 20:50,0.887,213,-0.038,81.4,38.59814,254.8559,7.00912,984.4391
2015/1/1 21:00,0.8,217.6,-0.078,81.6,130.645,232.5416,6.445628,984.4366
2015/1/1 21:10,0.787,208.9,-0.162,81.4,135.6096,170.8854,5.911967,984.4404
2015/1/1 21:20,0.76,206.2,-0.243,81.3,121.9295,192.4313,5.414895,984.4408
2015/1/1 21:30,0.583,214,0.006,80.3,109.8056,173.9524,4.959684,984.4408
2015/1/1 21:40,0.759,193.2,-0.368,80.2,97.77685,156.8778,4.537107,984.37
2015/1/1 21:50,0.992,168.3,-0.243,80.1,87.54889,141.2896,4.14403,984.37
2015/1/1 22:00,1.021,175.3,-0.118,77.31,78.8365,126.9263,3.795783,984.37
2015/1/1 22:10,0.767,198.9,-0.036,71.77,70.62824,113.5998,3.465829,984.37
2015/1/1 22:20,1.026,209.3,-1.163,71.77,61.11372,101.3723,3.175596,984.4408
2015/1/1 22:30,0.949,220.9,-1.746,69.93,27.63756,68.32867,2.877615,984.4408
2015/1/1 22:40,0.902,225.7,-1.579,79.66,14.86418,52.38654,2.650505,984.4408
2015/1/1 22:50,0.747,215.2,-1.539,75.37,15.61358,49.78768,2.449105,984.4408
2015/1/1 23:00,0.803,227.9,-2.081,78.71,14.86099,47.08816,2.266823,984.37
2015/1/1 23:10,0.642,209.2,-2.538,72.38,13.86152,44.77452,2.12871,984.4408
2015/1/1 23:20,0.597,213.8,-2.58,84.8,13.95899,42.88535,1.978072,984.37
2015/1/1 23:30,0.622,217.4,-2.747,86.9,13.54834,41.24115,1.85743,984.4408
2015/1/1 23:40,0.944,244.4,-3.241,90.1,13.20409,39.56197,1.779997,984.4408
2015/1/1 23:50,0.694,213.2,-3.934,91.7,12.0199,38.56914,1.70446,984.5823
2015/1/2 0:00,0.54,220.2,-3.67,94.3,12.45604,37.30606,1.586042,984.653
2015/1/2 0:10,0.293,205.1,-3.146,94,12.93958,36.94456,1.582547,984.653
2015/1/2 0:20,0.708,85,-2.297,83.4,13.96345,36.09148,1.582649,984.653
2015/1/2 0:30,0.778,195.9,-3.248,91.5,12.81089,35.78437,1.5827,984.653
2015/1/2 0:40,0.419,202.9,-3.158,88,11.88166,36.09386,1.582725,984.653
2015/1/2 0:50,0.409,191.3,-2.161,82.3,13.06621,36.83941,1.582733,984.6571
2015/1/2 1:00,1.263,150.6,-2.41,72.53,13.87423,37.26578,1.582898,984.6743
2015/1/2 1:10,1.617,146,-2.368,69.57,14.5144,37.94047,1.661211,984.7542
2015/1/2 1:20,1.766,143,-2.325,67.9,14.40411,39.18244,1.776289,984.7552
2015/1/2 1:30,1.763,84.2,-2.159,71.78,14.13318,40.72483,1.807778,984.7552
2015/1/2 1:40,1.673,70.24,-2.244,72.8,13.94296,42.41995,1.960446,984.7552
2015/1/2 1:50,1.276,125.4,-1.785,68.79,15.32799,44.42724,2.077667,984.7615
2015/1/2 2:00,2.099,90.4,-2.076,70.02,16.63869,46.59062,2.206924,984.7105
2015/1/2 2:10,1.605,57.74,-2.616,74.31,15.88983,49.05274,2.393719,984.7153
2015/1/2 2:20,1.181,64.1,-2.286,73.9,17.91183,52.50676,2.600299,984.7158
2015/1/2 2:30,0.932,152,-2.646,72,54.53629,80.01867,2.854827,984.6451
2015/1/2 2:40,1.53,136.2,-1.752,71.45,63.9329,90.63186,3.095453,984.5743
2015/1/2 2:50,1.307,132.7,-2.077,73.77,70.4976,101.2158,3.392558,984.6451
2015/1/2 3:00,1.513,140,-2.531,73.29,94.43259,127.528,3.647832,984.6451
2015/1/2 3:10,1.129,36.63,-1.365,73.29,148.5867,185.32,3.747101,984.6451
2015/1/2 3:20,0.803,21.87,-1.239,74.24,166.2786,211.9346,3.775133,984.5035
2015/1/2 3:30,1.533,261,-2.575,75.47,184.9825,241.7822,4.291258,984.5743
2015/1/2 3:40,1.596,228.1,-2.282,83.8,189.9305,252.5104,4.763202,984.5913
2015/1/2 3:50,2.901,288.3,-2.356,82.8,104.9387,177.0715,4.869161,984.5981
2015/1/2 4:00,2.665,308.7,-2.427,82.1,71.05491,133.5563,5.010607,984.5994
2015/1/2 4:10,2.712,296.3,-2.837,84.3,74.78722,139.1288,5.601177,984.4728
2015/1/2 4:20,2.453,282.9,-2.998,86.5,85.13917,155.5288,6.56443,984.4724
2015/1/2 4:30,2.206,289,-2.999,85.7,97.77374,174.2932,7.036724,984.5445
2015/1/2 4:40,2.186,280.3,-2.997,83.9,142.097,232.3589,7.937007,984.4752
2015/1/2 4:50,2.085,282.9,-2.907,82.8,228.2061,323.8966,9.110315,984.4807
2015/1/2 5:00,1.824,266.4,-3.324,84.1,252.2661,353.7432,10.06714,984.2753
2015/1/2 5:10,1.387,255.3,-2.989,84,268.8074,379.4351,10.80601,984.3497
2015/1/2 5:20,1.448,233.2,-3.488,84.6,302.3441,426.6815,11.60111,984.3459
2015/1/2 5:30,1.572,233.6,-3.196,86.1,306.1049,437.1058,12.33123,984.2053
2015/1/2 5:40,2.044,260.7,-2.783,83.3,215.4486,345.9897,11.94662,984.2766
2015/1/2 5:50,2.22,268.2,-2.948,84.2,227.3009,361.2443,12.56509,984.1379
2015/1/2 6:00,2.112,248.1,-2.905,83.5,315.8761,478.1837,14.03506,984.0668
2015/1/2 6:10,2.138,254.7,-2.864,83.4,366.3313,540.9849,15.40443,984.0703
2015/1/2 6:20,2.317,263.9,-2.657,82.7,402.9275,592.1951,16.12597,983.993
2015/1/2 6:30,2.091,271.9,-2.907,83.8,297.4369,475.7946,15.77815,983.9264
2015/1/2 6:40,1.868,269.4,-3.03,82.8,363.1534,556.389,17.6126,983.9289
2015/1/2 6:50,2.096,281.2,-2.823,81.2,428.6947,641.6306,19.35008,983.9292
2015/1/2 7:00,2.067,262.9,-2.616,81.8,483.6174,714.8495,20.88948,983.7831
2015/1/2 7:10,1.544,256.6,-2.408,81.1,505.3185,748.7181,21.91102,983.7147
2015/1/2 7:20,1.323,246.5,-2.572,81.6,521.6014,779.3113,22.88177,983.6433
2015/1/2 7:30,1.739,262.5,-2.447,79.78,535.9913,810.4416,23.88665,983.575
2015/1/2 7:40,1.936,263.2,-2.654,80.1,557.4821,842.8882,24.91924,983.5634
2015/1/2 7:50,2.199,254.5,-2.532,81.7,577.6607,874.28,25.89174,983.496
2015/1/2 8:00,2.269,250.1,-2.453,79.5,599.5743,907.7994,26.87997,983.4803
2015/1/2 8:10,2.473,259.6,-2.412,80.8,621.5361,943.9606,27.9187,983.489
2015/1/2 8:20,2.557,258.9,-2.289,80.3,641.9904,975.915,28.90176,983.4675
2015/1/2 8:30,2.728,251.3,-2.633,80.6,660.8834,1006.62,29.87361,983.3811
2015/1/2 8:40,2.393,251.6,-2.359,81.1,679.1953,1034.993,30.80527,983.2445
2015/1/2 8:50,2.423,255.8,-2.448,79.28,698.1626,1067.149,31.73666,983.1625
2015/1/2 9:00,2.409,261.4,-2.195,79.18,717.1837,1098.52,32.65382,983.1593
2015/1/2 9:10,2.854,258.6,-1.947,78.97,735.0597,1127.132,33.5866,983.0881
2015/1/2 9:20,2.945,251,-2.406,79.69,754.202,1156.803,34.48543,983.0174
2015/1/2 9:30,2.994,256.7,-1.823,80.5,770.6254,1183.18,35.35409,983.0174
2015/1/2 9:40,3.103,255.8,-1.949,80,784.4203,1206.233,36.15384,982.8759
2015/1/2 9:50,2.828,256.3,-1.783,78.73,800.0419,1230.536,36.91862,982.8759
2015/1/2 10:00,2.987,261.3,-1.824,78.53,812.6092,1255.052,37.66791,982.7343
2015/1/2 10:10,2.983,259.3,-2.034,79.14,826.3459,1276.834,38.4459,982.7343
2015/1/2 10:20,3.03,263.2,-2.16,81.5,839.2898,1299.375,39.12257,982.8051
2015/1/2 10:30,3.149,256,-2.089,80.4,851.541,1318.66,39.82459,982.7343
2015/1/2 10:40,3.051,261.3,-1.917,81.2,863.3972,1340.674,40.44748,982.6635
2015/1/2 10:50,2.959,261,-2.01,81.3,873.7521,1357.268,41.03808,982.7343
2015/1/2 11:00,2.983,260.7,-1.607,80.7,883.1607,1373.564,41.58978,982.5928
2015/1/2 11:10,2.737,262.4,-1.822,80.2,891.8915,1388.161,42.09346,982.522
2015/1/2 11:20,2.808,258.7,-2.2,79.69,897.3141,1401.04,42.51823,982.4512
2015/1/2 11:30,2.958,261.3,-1.785,79.93,904.3384,1413.856,42.91336,982.4512
2015/1/2 11:40,2.983,259.7,-1.368,79.96,911.5818,1424.088,43.26947,982.4473
2015/1/2 11:50,2.939,251.9,-2.074,82,914.101,1432.632,43.58058,982.3072
2015/1/2 12:00,2.801,252.7,-1.826,81.9,919.4005,1440.25,43.85196,982.1591
2015/1/2 12:10,2.554,261.7,-1.741,80.9,922.2696,1443.522,44.02985,982.0927
2015/1/2 12:20,2.394,258.3,-1.493,82.8,922.2289,1446.959,44.12498,982.0761
2015/1/2 12:30,2.533,260.6,-1.243,82.8,921.5359,1448.501,44.19587,981.9975
2015/1/2 12:40,2.515,253.7,-1.491,79.74,921.2434,1449.696,44.17856,981.8583
2015/1/2 12:50,2.102,249.2,-1.574,79.54,918.3542,1448.102,44.11063,981.8582
2015/1/2 13:00,2.015,256.7,-1.117,79.27,914.8458,1444.354,43.96176,981.7871
2015/1/2 13:10,2.076,249.7,-0.992,79.74,910.2871,1441.207,43.74265,981.7162
2015/1/2 13:20,2.283,256.7,-1.405,79.71,904.429,1433.901,43.4716,981.6453
2015/1/2 13:30,2.464,262.6,-1.075,79.81,901.4055,1425.493,43.13939,981.6461
2015/1/2 13:40,2.683,262.9,-0.865,80.1,896.3961,1415.559,42.72887,981.5715
2015/1/2 13:50,2.742,256.5,-0.948,81.2,888.4496,1405.269,42.27285,981.5721
2015/1/2 14:00,2.716,265.8,-0.742,79.61,880.5822,1391.936,41.82589,981.5712
2015/1/2 14:10,2.875,266.4,-0.533,81,871.986,1378.931,41.3697,981.5711
2015/1/2 14:20,2.906,265.7,-0.741,82.5,861.0991,1363.873,40.87081,981.5691
2015/1/2 14:30,2.818,268.4,-0.447,79.53,851.2825,1347.5,40.31553,981.4944
2015/1/2 14:40,2.338,259.9,-0.781,82.3,839.3055,1329.38,39.71706,981.3502
2015/1/2 14:50,2.056,267.8,-0.241,76.4,823.9551,1308.565,39.06649,981.2693
2015/1/2 15:00,2.424,270.5,-0.074,77.42,808.9644,1286.976,38.3574,981.2585
2015/1/2 15:10,2.043,259.6,-0.53,78.91,796.3577,1265.828,37.62489,981.2589
2015/1/2 15:20,1.796,260.1,-0.239,75.17,779.2874,1242.188,36.78917,981.1887
2015/1/2 15:30,1.645,247.5,-0.074,73.06,763.535,1219.156,35.92444,981.1159
2015/1/2 15:40,1.184,216.8,0.012,72.11,743.8137,1194.251,35.02821,981.1157
2015/1/2 15:50,1.463,246.6,0.093,71.9,723.9511,1165.46,34.13677,981.045
2015/1/2 16:00,1.705,254.3,0.344,74.97,706.0544,1137.361,33.26396,980.9742
2015/1/2 16:10,1.721,253.3,-0.155,73.03,687.9771,1108.475,32.34614,980.9742
2015/1/2 16:20,1.736,244.3,0.211,72.79,670.8198,1080.118,31.39866,980.9742
2015/1/2 16:30,1.805,259.6,0.154,72.21,650.4999,1048.026,30.44341,980.9035
2015/1/2 16:40,1.829,262.1,0.235,73.13,632.6741,1017.245,29.48924,980.8328
2015/1/2 16:50,1.984,263,-0.065,72.48,612.1291,985.7919,28.52889,980.8328
2015/1/2 17:00,2.197,261.7,-0.075,74.12,593.4109,954.1297,27.53522,980.8328
2015/1/2 17:10,2.021,256.7,-0.171,80,573.4636,922.3361,26.54326,980.8328
2015/1/2 17:20,1.864,251.1,0.152,76.26,553.1036,890.2662,25.51277,980.6913
2015/1/2 17:30,2.078,263.3,-0.27,78.98,531.2304,856.3418,24.49121,980.6913
2015/1/2 17:40,2.078,262.8,-0.485,78.61,511.9828,823.3163,23.47984,980.6205
2015/1/2 17:50,1.703,255.7,-0.077,78.64,470.3762,790.3563,22.46586,980.5497
2015/1/2 18:00,1.628,244.5,-0.287,80.8,438.8428,757.8071,21.45127,980.5497
2015/1/2 18:10,1.762,251.4,-0.745,81.6,448.2346,723.5264,20.45563,980.5497
2015/1/2 18:20,1.9,258.2,-0.537,80.5,428.0837,690.0547,19.47022,980.479
2015/1/2 18:30,2.073,257.4,-0.454,80.3,408.4611,657.3618,18.48398,980.4083
2015/1/2 18:40,1.78,263.4,-0.495,81.1,388.88,624.6672,17.51308,980.3375
2015/1/2 18:50,1.687,256.7,-0.703,79.32,369.5306,592.2142,16.5542,980.2667
2015/1/2 19:00,1.804,263.8,-0.452,79.39,351.2773,560.2645,15.61362,980.2667
2015/1/2 19:10,1.672,261.5,-0.244,80,331.8776,528.7393,14.66908,980.2667
2015/1/2 19:20,1.484,261.7,-0.535,79.66,211.8694,496.908,13.73409,980.2667
2015/1/2 19:30,1.3,253.2,-0.448,79.66,42.35239,466.3493,12.83796,980.196
2015/1/2 19:40,1.152,245.5,-0.284,78.16,39.59308,436.695,11.97938,980.196
2015/1/2 19:50,1.154,245.5,-0.45,78.91,39.66156,407.506,11.15694,980.196
2015/1/2 20:00,0.906,254.5,0.007,75.03,69.80853,378.7253,10.36914,980.1252
2015/1/2 20:10,1.042,263.9,-0.118,75.03,44.67804,351.1663,9.616775,980.1252
2015/1/2 20:20,1.109,250.1,0.341,73.88,33.6016,324.8757,8.901985,980.1252
2015/1/2 20:30,1.294,259.6,-0.576,79.59,31.53476,299.5298,8.232353,980.1252
2015/1/2 20:40,1.328,255.7,0.091,75.24,31.8783,275.3196,7.593378,980.1252
2015/1/2 20:50,0.768,209.3,-0.329,77.89,32.95127,252.5691,6.977806,980.1252
2015/1/2 21:00,0.626,249.3,-0.119,75.03,121.5675,230.1005,6.420083,980.196
2015/1/2 21:10,0.743,222.4,-0.37,78.37,133.5068,168.409,5.885597,980.196
2015/1/2 21:20,0.596,225.1,-0.119,73.33,120.6392,189.4281,5.377977,980.2667
2015/1/2 21:30,0.571,207.5,-0.744,80.3,105.9108,171.4995,4.929194,980.3375
2015/1/2 21:40,0.663,162.5,-0.496,77.14,97.23038,154.2873,4.506946,980.4083
2015/1/2 21:50,1.428,85.9,0.591,72.38,87.07356,138.3687,4.104485,980.3375
2015/1/2 22:00,1.965,73.68,1.01,66.84,77.89706,123.8859,3.742763,980.4083
2015/1/2 22:10,2.542,63.65,1.31,64.9,69.19921,110.6684,3.421793,980.479
2015/1/2 22:20,3.176,68.88,1.682,56.05,60.30848,98.37178,3.110565,980.5497
2015/1/2 22:30,4.775,71.96,1.933,51.73,26.40531,63.92743,2.825089,980.6205
2015/1/2 22:40,5.604,82.5,1.937,46.19,17.80379,51.65598,2.5792,980.6913
2015/1/2 22:50,4.697,97.2,1.398,52.18,14.56764,48.73796,2.381663,980.8328
2015/1/2 23:00,4.826,100.6,0.91,54.52,14.139,46.28287,2.198132,980.9035
2015/1/2 23:10,4.635,97.3,1.952,47.62,16.1561,44.00051,2.047507,980.9742
2015/1/2 23:20,4.956,99.8,1.594,47.99,13.51191,41.90471,1.937188,980.9742
2015/1/2 23:30,5.319,89.8,1.895,43.91,14.57372,40.00382,1.78676,981.1157
2015/1/2 23:40,5.232,83.7,1.369,46.84,12.08665,38.5001,1.721566,981.2572
2015/1/2 23:50,5.538,85.4,1.125,47.38,11.76682,37.21152,1.590236,981.3987
2015/1/3 0:00,5.326,82.6,0.966,49.05,11.40675,35.98414,1.582712,981.5402
2015/1/3 0:10,4.846,72.96,0.511,51.9,10.93229,35.25996,1.548604,981.7524
2015/1/3 0:20,4.69,73.6,0.221,53.13,11.21686,35.20812,1.483977,981.894
2015/1/3 0:30,4.421,69.38,0.22,53.78,11.59969,35.16618,1.483813,982.1207
2015/1/3 0:40,4.205,65.84,0.301,52.87,11.61647,35.20814,1.483813,982.2748
2015/1/3 0:50,4.02,68.3,0.301,52.87,11.88181,35.24506,1.51794,982.4198
2015/1/3 1:00,3.946,73.31,0.219,51.71,12.11358,35.80059,1.582733,982.4941
2015/1/3 1:10,4.288,81.4,0.011,52.42,12.54116,37.13991,1.582733,982.5621
2015/1/3 1:20,4.099,72.44,0.01,52.15,12.79051,38.22915,1.66154,982.7095
2015/1/3 1:30,3.706,67.79,-0.03,50.38,13.53457,39.77489,1.78041,982.7757
2015/1/3 1:40,3.385,75.08,0.136,49.7,14.05166,41.62106,1.866801,982.9927
2015/1/3 1:50,3.409,86.1,0.093,50.52,15.15296,43.75591,1.99342,983.0687
2015/1/3 2:00,4.251,97,-0.117,51.79,15.43508,46.10894,2.156804,983.1558
2015/1/3 2:10,4.277,99.8,-0.36,52.26,16.6652,48.68223,2.316276,983.3001
2015/1/3 2:20,4.866,105.7,-0.561,53.42,17.93249,51.7501,2.506937,983.3712
2015/1/3 2:30,4.871,107.7,-0.34,52.06,50.4657,76.01913,2.743666,983.442
2015/1/3 2:40,5.097,107.1,-0.709,51.79,38.31606,71.64646,2.976231,983.5835
2015/1/3 2:50,4.788,111.9,-0.7,54.37,31.04576,67.53094,3.223517,983.5835
2015/1/3 3:00,4.653,111.8,-0.946,54.41,26.18713,64.78442,3.470237,983.5835
2015/1/3 3:10,5.04,111.2,-0.696,52.16,23.14658,64.02265,3.765569,983.6543
2015/1/3 3:20,5.203,107.7,-0.737,52.33,26.06579,69.43457,4.076398,983.7958
2015/1/3 3:30,4.73,106.2,-0.533,52.33,29.81152,75.72774,4.418394,984.0082
2015/1/3 3:40,3.964,112,-0.782,54.78,31.35265,80.12572,4.745548,984.0789
2015/1/3 3:50,3.442,105.9,0.02,50.02,75.5543,123.5853,5.245476,984.2277
2015/1/3 4:00,3.164,103.6,-0.136,51.73,39.61557,92.62081,5.468115,984.4716
2015/1/3 4:10,2.27,74.67,0.008,48.5,30.27227,81.60402,5.779771,984.6253
2015/1/3 4:20,2.09,81.9,0.055,48.91,30.88594,84.36757,6.164855,984.7693
2015/1/3 4:30,1.229,80.9,-0.279,52.96,35.47606,92.4339,6.589716,984.9122
2015/1/3 4:40,0.651,52.85,-0.487,53.23,38.60608,98.64936,7.044084,984.9178